TimePST,TemperatureF,Dew PointF,Humidity,Sea Level PressureIn,VisibilityMPH,Wind Direction,Wind SpeedMPH,Gust SpeedMPH,PrecipitationIn,Events,Conditions,WindDirDegrees,DateUTC
12:52 AM,53.1,35.1,50,30.00,10.0,Calm,Calm,-,N/A,,Clear,0,2013-03-03 08:52:00
1:52 AM,55.0,32.0,42,29.99,10.0,North,4.6,-,N/A,,Clear,10,2013-03-03 09:52:00
2:52 AM,52.0,36.0,54,29.98,10.0,West,3.5,-,N/A,,Clear,280,2013-03-03 10:52:00
4:52 AM,54.0,36.0,51,29.96,10.0,NE,5.8,-,N/A,,Clear,50,2013-03-03 12:52:00
5:52 AM,54.0,36.0,51,29.94,10.0,Calm,Calm,-,N/A,,Clear,0,2013-03-03 13:52:00
6:52 AM,55.9,37.0,49,29.96,10.0,ESE,5.8,-,N/A,,Clear,120,2013-03-03 14:52:00
7:52 AM,57.9,37.9,47,29.99,10.0,Calm,Calm,-,N/A,,Clear,0,2013-03-03 15:52:00
8:52 AM,63.0,44.1,50,29.98,10.0,Calm,Calm,-,N/A,,Clear,0,2013-03-03 16:52:00
9:52 AM,69.1,48.9,49,29.99,10.0,SE,3.5,-,N/A,,Clear,130,2013-03-03 17:52:00
10:52 AM,73.0,43.0,34,29.97,10.0,SSE,11.5,-,N/A,,Clear,150,2013-03-03 18:52:00
11:52 AM,78.1,35.1,21,29.94,10.0,SE,8.1,16.1,N/A,,Clear,140,2013-03-03 19:52:00
12:52 PM,82.0,34.0,18,29.89,10.0,SE,9.2,-,N/A,,Partly Cloudy,130,2013-03-03 20:52:00
1:52 PM,84.0,34.0,17,29.85,10.0,SE,11.5,-,N/A,,Scattered Clouds,130,2013-03-03 21:52:00
2:52 PM,87.1,19.0,8,29.83,7.0,SSW,19.6,31.1,N/A,,Overcast,200,2013-03-03 22:52:00
3:09 PM,87.8,17.6,8,29.82,10.0,WSW,13.8,24.2,N/A,,Mostly Cloudy,250,2013-03-03 23:09:00
3:21 PM,87.8,17.6,8,29.82,9.0,West,17.3,27.6,N/A,,Mostly Cloudy,270,2013-03-03 23:21:00
3:52 PM,86.0,18.0,8,29.81,10.0,West,16.1,21.9,N/A,,Partly Cloudy,270,2013-03-03 23:52:00
4:52 PM,82.9,30.0,15,29.81,10.0,West,13.8,21.9,N/A,,Clear,270,2013-03-04 00:52:00
5:52 PM,78.1,28.9,17,29.82,8.0,West,17.3,32.2,N/A,,Clear,270,2013-03-04 01:52:00
6:52 PM,75.0,32.0,21,29.83,10.0,NW,12.7,20.7,N/A,,Clear,320,2013-03-04 02:52:00
7:52 PM,73.9,30.9,21,29.83,10.0,NNW,9.2,-,N/A,,Scattered Clouds,340,2013-03-04 03:52:00
8:52 PM,69.1,35.1,29,29.84,10.0,NW,5.8,-,N/A,,Overcast,320,2013-03-04 04:52:00
9:52 PM,66.9,35.1,31,29.86,10.0,NNW,8.1,-,N/A,,Clear,340,2013-03-04 05:52:00
10:52 PM,64.9,36.0,34,29.87,10.0,NNW,3.5,-,N/A,,Clear,330,2013-03-04 06:52:00